Time,TemperatureF,DewpointF,PressureIn,WindDirection,WindDirectionDegrees,WindSpeedMPH,WindSpeedGustMPH,Humidity,HourlyPrecipIn,Conditions,Clouds,dailyrainin,SoftwareType,DateUTC
2013-09-16 02:00:00,43.0,25.0,-100.00,North,-999,-999.0,-999.0,48,-99.99,,,0.01,,2013-09-16 08:00:00,
2013-09-16 02:52:00,43.0,25.0,-100.00,North,-999,-999.0,-999.0,48,-99.99,,,0.01,,2013-09-16 08:52:00,
2013-09-16 05:00:00,40.0,22.0,-100.00,North,-999,-999.0,-999.0,48,-99.99,,,0.01,,2013-09-16 11:00:00,
2013-09-16 05:52:00,40.0,22.0,-100.00,North,-999,-999.0,-999.0,48,-99.99,,,0.01,,2013-09-16 11:52:00,
2013-09-16 06:00:00,39.0,21.0,-100.00,North,-999,-999.0,-999.0,47,-99.99,,,0.01,,2013-09-16 12:00:00,
2013-09-16 06:52:00,39.0,21.0,-100.00,North,-999,-999.0,-999.0,47,-99.99,,,0.01,,2013-09-16 12:52:00,
2013-09-16 07:00:00,39.0,21.0,-100.00,North,-999,-999.0,-999.0,47,-99.99,,,0.01,,2013-09-16 13:00:00,
2013-09-16 07:52:00,39.0,21.0,-100.00,North,-999,-999.0,-999.0,47,-99.99,,,0.01,,2013-09-16 13:52:00,
2013-09-16 08:00:00,42.0,23.0,-100.00,North,-999,-999.0,-999.0,47,-99.99,,,0.01,,2013-09-16 14:00:00,
2013-09-16 08:52:00,42.0,23.0,-100.00,North,-999,-999.0,-999.0,47,-99.99,,,0.01,,2013-09-16 14:52:00,
2013-09-16 09:00:00,49.0,29.0,-100.00,North,-999,-999.0,-999.0,46,-99.99,,,0.01,,2013-09-16 15:00:00,
2013-09-16 09:53:00,49.0,29.0,-100.00,North,-999,-999.0,-999.0,46,-99.99,,,0.01,,2013-09-16 15:53:00,
2013-09-16 13:00:00,60.0,38.0,-100.00,North,-999,-999.0,-999.0,45,-99.99,,,-99.99,,2013-09-16 19:00:00,
2013-09-16 13:53:00,60.0,38.0,-100.00,North,-999,-999.0,-999.0,45,-99.99,,,-99.99,,2013-09-16 19:53:00,
2013-09-16 14:00:00,60.0,39.0,-100.00,North,-999,-999.0,-999.0,46,-99.99,,,-99.99,,2013-09-16 20:00:00,
2013-09-16 14:52:00,60.0,39.0,-100.00,North,-999,-999.0,-999.0,46,-99.99,,,-99.99,,2013-09-16 20:52:00,
2013-09-16 15:00:00,56.0,35.0,-100.00,North,-999,-999.0,-999.0,44,-99.99,,,-99.99,,2013-09-16 21:00:00,
2013-09-16 15:56:00,56.0,35.0,-100.00,North,-999,-999.0,-999.0,44,-99.99,,,-99.99,,2013-09-16 21:56:00,
2013-09-16 17:00:00,56.0,36.0,-100.00,North,-999,-999.0,-999.0,46,-99.99,,,-99.99,,2013-09-16 23:00:00,
2013-09-16 17:53:00,56.0,36.0,-100.00,North,-999,-999.0,-999.0,46,-99.99,,,-99.99,,2013-09-16 23:53:00,
2013-09-16 19:00:00,49.0,29.0,-100.00,North,-999,-999.0,-999.0,47,-99.99,,,-99.99,,2013-09-17 01:00:00,
2013-09-16 19:52:00,49.0,29.0,-100.00,North,-999,-999.0,-999.0,47,-99.99,,,-99.99,,2013-09-17 01:52:00,
2013-09-16 23:00:00,42.0,24.0,-100.00,North,-999,-999.0,-999.0,48,-99.99,,,0.00,,2013-09-17 05:00:00,
2013-09-16 23:52:00,42.0,24.0,-100.00,North,-999,-999.0,-999.0,48,-99.99,,,0.00,,2013-09-17 05:52:00,